DW6345 Murcia ES current weather conditions

sailwx.info

Wind from 156 at 1 knots gusting 2

Air temperature 19.4° C
Dewpoint 13.2° C

Last reported at 2015-May-28 21:49 UTC.
Time now 2015-May-28 22:17 UTC

Location: N 37°60' W 001°06'.
View on Google Maps.

See reports from other nearby stations

  
Tides and Currents Weather Stations Pressure Air Temp Water Temp Dewpoint Dewpoint Depression Visibility Wind Speed Wind Dir Waves Ship Positions
date/time (UTC)wind fromknots sea level pressurealtimeterstation pressurevisibilityair tempwater tempwave heightnotes
2015-May-28 21:49 156 1 gusting 2 19.4
2015-May-28 21:44 136 0 gusting 2 19.4
2015-May-28 21:39 176 0 gusting 4 19.4
2015-May-28 21:34 138 0 gusting 2 19.4
2015-May-28 21:29 090 0 gusting 4 19.4
2015-May-28 21:24 130 1 gusting 5 19.4
2015-May-28 21:19 090 1 gusting 5 19.4
2015-May-28 21:14 124 1 gusting 5 19.4
2015-May-28 21:09 135 4 gusting 6 19.4
2015-May-28 21:04 090 4 gusting 6 20.0
2015-May-28 20:59 132 2 gusting 6 20.0
2015-May-28 20:54 133 2 gusting 5 20.0
2015-May-28 20:49 088 2 gusting 6 20.0
2015-May-28 20:44 089 2 gusting 6 20.0
2015-May-28 20:39 090 2 gusting 6 20.0
2015-May-28 20:34 133 2 gusting 6 20.6
2015-May-28 20:29 090 3 gusting 6 20.6
2015-May-28 20:24 090 2 gusting 6 20.6
2015-May-28 20:19 176 4 gusting 6 20.6
2015-May-28 20:14 138 4 gusting 6 20.6
2015-May-28 20:09 132 4 gusting 7 20.6
2015-May-28 20:04 094 5 gusting 8 20.6
2015-May-28 19:59 090 5 gusting 8 21.1
2015-May-28 19:54 094 5 gusting 8 21.1
2015-May-28 19:49 090 5 gusting 8 21.1
2015-May-28 19:44 090 6 gusting 8 21.1
2015-May-28 19:39 090 3 gusting 7 21.7
2015-May-28 19:34 090 5 gusting 7 21.7
2015-May-28 19:29 090 6 gusting 10 22.2
2015-May-28 19:24 090 6 gusting 10 22.2
2015-May-28 19:19 092 4 gusting 8 22.2
2015-May-28 19:14 090 4 gusting 7 22.2
2015-May-28 19:09 092 4 gusting 10 22.8
2015-May-28 19:04 090 6 gusting 10 22.8
2015-May-28 18:59 090 6 gusting 11 23.3
2015-May-28 18:54 090 6 gusting 11 23.3
2015-May-28 18:49 086 7 gusting 12 23.3
2015-May-28 18:44 090 7 gusting 11 23.9
2015-May-28 18:39 090 6 gusting 11 23.9
2015-May-28 18:34 176 6 gusting 11 24.4
2015-May-28 18:29 090 6 gusting 11 24.4
2015-May-28 18:24 092 5 gusting 10 24.4
2015-May-28 18:19 196 4 gusting 7 24.4
2015-May-28 18:14 135 5 gusting 11 24.4
2015-May-28 18:09 154 6 gusting 13 25.0
2015-May-28 18:04 090 8 gusting 13 25.0
2015-May-28 17:59 094 7 gusting 13 25.0
2015-May-28 17:54 090 6 gusting 12 25.6
2015-May-28 17:49 094 6 gusting 11 25.6
2015-May-28 17:44 135 5 gusting 11 25.6
2015-May-28 17:39 133 5 gusting 13 25.6
2015-May-28 17:34 132 6 gusting 11 25.6
2015-May-28 17:29 090 6 gusting 12 26.1
2015-May-28 17:24 113 5 gusting 13 26.1
2015-May-28 17:19 114 6 gusting 13 26.1
2015-May-28 17:14 111 6 gusting 13 26.1
2015-May-28 17:09 093 6 gusting 12 26.1
2015-May-28 17:04 135 7 gusting 13 26.1
2015-May-28 16:59 174 6 gusting 13 26.1
2015-May-28 16:54 270 6 gusting 13 26.1
2015-May-28 16:49 095 6 gusting 13 26.1
2015-May-28 16:44 092 7 gusting 13 26.1
2015-May-28 16:39 131 10 gusting 15 26.7
2015-May-28 16:34 090 6 gusting 11 26.7
2015-May-28 16:29 132 7 gusting 14 26.7
2015-May-28 16:24 090 7 gusting 13 26.7
2015-May-28 16:19 135 5 gusting 13 26.7
2015-May-28 16:14 089 4 gusting 13 26.7
2015-May-28 16:09 132 9 gusting 15 26.7
2015-May-28 16:04 090 7 gusting 14 26.7
2015-May-28 15:59 090 8 gusting 14 26.7
2015-May-28 15:54 090 8 gusting 14 26.7
2015-May-28 15:49 135 9 gusting 15 26.7
2015-May-28 15:44 093 6 gusting 13 27.2
2015-May-28 15:39 090 6 gusting 13 26.7
2015-May-28 15:34 090 6 gusting 17 26.7
2015-May-28 15:29 176 6 gusting 14 26.7
2015-May-28 15:24 090 7 gusting 17 26.7
2015-May-28 15:19 094 7 gusting 15 27.2
2015-May-28 15:14 090 8 gusting 15 27.2
2015-May-28 15:09 090 8 gusting 14 27.2
2015-May-28 15:04 048 8 gusting 15 27.2
2015-May-28 14:59 131 7 gusting 13 27.2
2015-May-28 14:54 090 6 gusting 13 27.2
2015-May-28 14:49 090 7 gusting 15 27.2
2015-May-28 14:44 090 5 gusting 13 27.2
2015-May-28 14:39 133 6 gusting 11 27.2
2015-May-28 14:34 090 5 gusting 15 26.7
2015-May-28 14:29 090 9 gusting 15 26.7
2015-May-28 14:24 090 6 gusting 13 27.2
2015-May-28 14:19 135 6 gusting 13 26.7
2015-May-28 14:14 042 6 gusting 13 27.2
2015-May-28 14:09 093 6 gusting 13 26.7
2015-May-28 14:04 090 10 gusting 14 26.7
2015-May-28 13:59 133 7 gusting 14 26.7
2015-May-28 13:54 086 6 gusting 17 26.7
2015-May-28 13:49 092 6 gusting 17 26.7
2015-May-28 13:44 092 8 gusting 15 26.7
2015-May-28 13:39 094 10 gusting 17 27.2
2015-May-28 13:34 135 5 gusting 12 27.2
2015-May-28 13:29 095 6 gusting 17 27.2
2015-May-28 13:24 090 9 gusting 17 27.2
2015-May-28 13:19 137 5 gusting 10 27.2
2015-May-28 13:14 090 6 gusting 13 26.7
2015-May-28 13:09 135 8 gusting 13 26.7
2015-May-28 13:04 132 5 gusting 13 26.7
2015-May-28 12:59 133 6 gusting 13 26.7
2015-May-28 12:54 132 7 gusting 13 26.7
2015-May-28 12:49 130 8 gusting 14 26.7
2015-May-28 12:44 090 8 gusting 13 26.7
2015-May-28 12:39 132 8 gusting 13 26.7
2015-May-28 12:34 092 5 gusting 10 26.7
2015-May-28 12:29 175 4 gusting 13 26.7
2015-May-28 12:24 090 7 gusting 13 26.7
2015-May-28 12:19 090 7 gusting 11 26.7
2015-May-28 12:14 090 6 gusting 15 26.1
2015-May-28 12:09 110 8 gusting 14 26.1
2015-May-28 12:04 093 6 gusting 14 26.1
2015-May-28 11:59 048 6 gusting 13 26.7
2015-May-28 11:54 095 7 gusting 13 26.7
2015-May-28 11:49 090 6 gusting 11 26.7
2015-May-28 11:44 180 6 gusting 10 26.7
2015-May-28 11:39 174 3 gusting 11 26.1
2015-May-28 11:34 090 4 gusting 18 26.1
2015-May-28 11:29 090 7 gusting 18 26.1
2015-May-28 11:24 090 7 gusting 13 26.1
2015-May-28 11:19 133 5 gusting 13 26.1
2015-May-28 11:14 090 6 gusting 13 25.6
2015-May-28 11:09 132 6 gusting 13 25.6
2015-May-28 11:04 090 5 gusting 11 25.6
2015-May-28 10:59 132 6 gusting 11 25.6
2015-May-28 10:54 140 7 gusting 14 25.6
2015-May-28 10:49 090 7 gusting 13 25.6
2015-May-28 10:44 045 5 gusting 8 25.6
2015-May-28 10:39 086 5 gusting 13 25.6
2015-May-28 10:34 133 4 gusting 14 25.6
2015-May-28 10:29 090 7 gusting 14 25.0
2015-May-28 10:24 095 4 gusting 7 25.0
2015-May-28 10:19 129 4 gusting 10 25.0
2015-May-28 10:14 133 6 gusting 12 25.0
2015-May-28 10:09 090 6 gusting 11 25.0
2015-May-28 10:04 094 5 gusting 11 25.0
2015-May-28 09:59 062 2 gusting 8 24.4
2015-May-28 09:54 093 4 gusting 11 24.4
2015-May-28 09:49 088 1 gusting 6 24.4
2015-May-28 09:44 088 4 gusting 10 23.9
2015-May-28 09:39 047 2 gusting 6 23.9
2015-May-28 09:34 130 3 gusting 7 23.3
2015-May-28 09:29 090 3 gusting 8 23.3
2015-May-28 09:24 090 3 gusting 8 23.3
2015-May-28 09:19 047 4 gusting 8 23.3
2015-May-28 09:14 090 3 gusting 7 22.8
2015-May-28 09:09 090 1 gusting 6 22.8
2015-May-28 09:04 048 4 gusting 8 22.8
2015-May-28 08:59 087 5 gusting 8 22.8
2015-May-28 08:54 130 3 gusting 6 22.2
2015-May-28 08:49 047 2 gusting 6 22.2
2015-May-28 08:44 090 2 gusting 7 22.2
2015-May-28 08:39 133 4 gusting 7 22.2
2015-May-28 08:34 092 2 gusting 6 22.2
2015-May-28 08:29 088 2 gusting 6 21.7
2015-May-28 08:24 088 3 gusting 6 21.7
2015-May-28 08:19 135 2 gusting 6 21.7
2015-May-28 08:14 050 2 gusting 5 21.7
2015-May-28 08:09 135 4 gusting 6 21.1
2015-May-28 08:04 090 1 gusting 6 21.1
2015-May-28 07:59 049 4 gusting 6 21.1
2015-May-28 07:54 045 4 gusting 6 21.1
2015-May-28 07:49 133 5 gusting 6 21.1
2015-May-28 07:44 092 2 gusting 6 21.1
2015-May-28 07:39 093 1 gusting 5 21.1
2015-May-28 07:34 045 2 gusting 6 21.7
2015-May-28 07:29 089 1 gusting 6 21.7
2015-May-28 07:24 132 1 gusting 4 21.7
2015-May-28 07:19 047 1 gusting 2 21.7
2015-May-28 07:14 270 0 gusting 2 21.1
2015-May-28 07:09 135 0 gusting 2 21.1
2015-May-28 07:04 180 20.6
2015-May-28 06:59 138 20.6
2015-May-28 06:54 135 0 gusting 1 20.0
2015-May-28 06:49 270 0 gusting 1 19.4
2015-May-28 06:44 246 0 gusting 0 19.4
2015-May-28 06:39 266 0 gusting 1 18.9
2015-May-28 06:34 269 0 gusting 2 18.3
2015-May-28 06:29 312 18.3
2015-May-28 06:24 265 0 gusting 2 18.3
2015-May-28 06:19 270 0 gusting 1 17.8
2015-May-28 06:14 312 17.8
2015-May-28 06:09 270 0 gusting 2 17.8
2015-May-28 06:04 315 0 gusting 2 17.8
2015-May-28 05:59 315 1 gusting 2 17.8
2015-May-28 05:54 315 0 gusting 1 17.2
2015-May-28 05:49 090 0 gusting 1 17.2
2015-May-28 05:44 038 0 gusting 1 17.2
2015-May-28 05:39 315 0 gusting 2 17.2
2015-May-28 05:34 273 0 gusting 2 17.2
2015-May-28 05:29 315 0 gusting 1 17.2
2015-May-28 05:24 315 0 gusting 2 17.2
2015-May-28 05:19 315 0 gusting 2 17.2
2015-May-28 05:14 270 0 gusting 1 17.2
2015-May-28 05:09 270 0 gusting 2 17.2
2015-May-28 05:04 202 0 gusting 0 17.2
2015-May-28 04:59 202 0 gusting 1 17.2
2015-May-28 04:54 202 0 gusting 1 17.2
2015-May-28 04:49 202 0 gusting 1 16.7
2015-May-28 04:44 227 0 gusting 0 16.7
2015-May-28 04:39 180 0 gusting 1 16.7
2015-May-28 04:34 180 0 gusting 1 16.7
2015-May-28 04:29 227 0 gusting 1 16.7
2015-May-28 04:24 180 0 gusting 1 16.7
2015-May-28 04:19 180 0 gusting 1 16.7
2015-May-28 04:14 179 0 gusting 0 16.7
2015-May-28 04:09 158 16.7
2015-May-28 04:04 090 16.7
2015-May-28 03:59 087 16.7
2015-May-28 03:54 045 16.7
2015-May-28 03:49 045 0 gusting 0 16.7
2015-May-28 03:44 045 16.7
2015-May-28 03:39 045 16.7
2015-May-28 03:34 090 0 gusting 0 16.7
2015-May-28 03:29 090 16.7
2015-May-28 03:24 180 16.7
2015-May-28 03:19 180 0 gusting 1 16.7
2015-May-28 03:14 136 0 gusting 1 16.7
2015-May-28 03:09 180 16.7
2015-May-28 03:04 180 16.7
2015-May-28 02:59 141 0 gusting 1 16.7
2015-May-28 02:54 141 0 gusting 1 16.7
2015-May-28 02:49 136 0 gusting 2 16.7
2015-May-28 02:44 135 0 gusting 1 16.7
2015-May-28 02:39 132 0 gusting 1 17.2
2015-May-28 02:34 093 0 gusting 1 17.2
2015-May-28 02:29 090 0 gusting 1 17.2
2015-May-28 02:24 138 17.2
2015-May-28 02:19 090 0 gusting 0 17.2
2015-May-28 02:14 135 0 gusting 1 17.2
2015-May-28 02:09 135 17.2
2015-May-28 02:04 135 17.2
2015-May-28 01:59 090 17.2
2015-May-28 01:54 090 17.2
2015-May-28 01:49 045 0 gusting 1 17.8
2015-May-28 01:44 084 0 gusting 0 17.8
2015-May-28 01:39 090 17.8
2015-May-28 01:34 048 17.8
2015-May-28 01:29 087 17.8
2015-May-28 01:24 045 0 gusting 0 17.8
2015-May-28 01:19 045 0 gusting 1 17.8
2015-May-28 01:14 045 0 gusting 2 17.8
2015-May-28 01:09 045 1 gusting 2 17.8
2015-May-28 01:04 045 0 gusting 1 17.8
2015-May-28 00:59 045 0 gusting 1 17.8
2015-May-28 00:54 045 17.8
2015-May-28 00:49 045 0 gusting 0 17.8
2015-May-28 00:44 045 0 gusting 1 17.8
2015-May-28 00:39 090 0 gusting 1 17.8
2015-May-28 00:34 090 0 gusting 2 17.8
2015-May-28 00:29 131 1 gusting 2 17.8
2015-May-28 00:24 090 0 gusting 1 17.8
2015-May-28 00:19 090 0 gusting 2 17.8
2015-May-28 00:14 090 0 gusting 2 17.8
2015-May-28 00:09 091 0 gusting 2 18.3
2015-May-28 00:04 158 1 gusting 2 18.3
2015-May-27 23:59 090 1 gusting 4 18.3
2015-May-27 23:54 049 1 gusting 2 18.3
2015-May-27 23:49 087 1 gusting 4 18.3
2015-May-27 23:44 090 1 gusting 4 18.3
2015-May-27 23:39 090 1 gusting 5 18.3
2015-May-27 23:34 090 2 gusting 5 18.3
2015-May-27 23:29 090 2 gusting 4 18.3
2015-May-27 23:24 090 2 gusting 5 18.3
2015-May-27 23:19 085 2 gusting 4 18.3
2015-May-27 23:14 090 2 gusting 4 18.3
2015-May-27 23:09 090 2 gusting 4 18.3
2015-May-27 23:04 090 1 gusting 4 18.3
2015-May-27 22:59 088 1 gusting 5 18.3
2015-May-27 22:54 090 2 gusting 5 18.3
2015-May-27 22:49 090 2 gusting 5 18.9
2015-May-27 22:44 132 2 gusting 5 18.9
2015-May-27 22:39 093 2 gusting 5 18.9
2015-May-27 22:34 090 3 gusting 5 18.9
2015-May-27 22:29 132 2 gusting 6 18.9
2015-May-27 22:24 048 2 gusting 6 18.9
2015-May-27 22:19 090 4 gusting 6 18.9
2015-May-27 22:14 090 3 gusting 6 18.9
2015-May-27 22:09 087 3 gusting 6 18.9
2015-May-27 22:04 090 4 gusting 6 18.9
2015-May-27 21:59 130 2 gusting 5 19.4
2015-May-27 21:54 085 2 gusting 6 19.4
2015-May-27 21:49 096 3 gusting 6 19.4
2015-May-27 21:44 090 4 gusting 6 19.4
2015-May-27 21:39 132 2 gusting 6 19.4
2015-May-27 21:34 090 3 gusting 6 19.4
2015-May-27 21:29 090 4 gusting 6 19.4
2015-May-27 21:24 087 2 gusting 6 19.4
2015-May-27 21:19 135 3 gusting 6 19.4
2015-May-27 21:14 133 4 gusting 6 20.0
2015-May-27 21:09 133 3 gusting 6 20.0
2015-May-27 21:04 090 5 gusting 6 20.0
2015-May-27 20:59 135 4 gusting 6 20.0
2015-May-27 20:54 094 4 gusting 6 20.0
2015-May-27 20:49 090 4 gusting 6 20.0
2015-May-27 20:44 051 2 gusting 7 20.0
2015-May-27 20:39 088 2 gusting 6 20.6
2015-May-27 20:34 139 2 gusting 6 20.6
2015-May-27 20:29 092 3 gusting 8 20.6
2015-May-27 20:24 090 3 gusting 6 20.6
2015-May-27 20:19 093 2 gusting 5 20.6
2015-May-27 20:14 090 2 gusting 6 20.6
2015-May-27 20:09 175 4 gusting 7 20.6
2015-May-27 20:04 090 5 gusting 11 21.1
2015-May-27 19:59 135 6 gusting 11 21.1
2015-May-27 19:54 049 4 gusting 8 21.1
2015-May-27 19:49 090 6 gusting 8 21.1
2015-May-27 19:44 133 5 gusting 7 21.1
2015-May-27 19:39 087 2 gusting 8 21.7
2015-May-27 19:34 090 5 gusting 11 21.7
2015-May-27 19:29 090 5 gusting 7 21.7
2015-May-27 19:24 135 4 gusting 11 21.7
2015-May-27 19:19 095 3 gusting 8 22.2
2015-May-27 19:14 094 4 gusting 10 22.2
2015-May-27 19:09 048 4 gusting 10 22.2
2015-May-27 19:04 090 6 gusting 11 22.8
2015-May-27 18:59 090 5 gusting 11 22.8
2015-May-27 18:54 090 6 gusting 13 22.8
2015-May-27 18:49 090 7 gusting 14 23.3
2015-May-27 18:44 090 8 gusting 13 23.3
2015-May-27 18:39 093 8 gusting 13 23.3
2015-May-27 18:34 092 7 gusting 13 23.9
2015-May-27 18:29 090 6 gusting 11 24.4
2015-May-27 18:24 088 6 gusting 12 24.4
2015-May-27 18:19 049 7 gusting 12 25.0
2015-May-27 18:14 132 5 gusting 13 25.0
2015-May-27 18:09 096 5 gusting 11 25.0
2015-May-27 18:04 132 5 gusting 11 25.6
2015-May-27 17:59 090 5 gusting 8 25.6
2015-May-27 17:54 096 1 gusting 10 25.6
2015-May-27 17:49 135 5 gusting 8 25.6
2015-May-27 17:44 180 4 gusting 8 25.6
2015-May-27 17:39 180 5 gusting 8 25.6
2015-May-27 17:34 180 6 gusting 11 25.6
2015-May-27 17:29 182 4 gusting 11 26.1
2015-May-27 17:24 097 5 gusting 8 26.1
2015-May-27 17:19 137 5 gusting 7 26.1
2015-May-27 17:14 158 5 gusting 8 26.1
2015-May-27 17:09 180 5 gusting 8 26.1
2015-May-27 17:04 180 5 gusting 10 26.1
2015-May-27 16:59 180 6 gusting 11 26.7
2015-May-27 16:54 137 6 gusting 11 26.7
2015-May-27 16:49 180 5 gusting 11 26.7
2015-May-27 16:44 139 6 gusting 12 26.7
2015-May-27 16:39 182 4 gusting 10 26.7
2015-May-27 16:34 180 7 gusting 11 26.7
2015-May-27 16:29 177 6 gusting 12 26.7
2015-May-27 16:24 180 5 gusting 13 26.7
2015-May-27 16:19 180 8 gusting 13 26.7
2015-May-27 16:14 180 6 gusting 13 26.7
2015-May-27 16:09 180 7 gusting 13 26.7
2015-May-27 16:04 180 7 gusting 13 26.7
2015-May-27 15:59 139 7 gusting 12 26.7
2015-May-27 15:54 180 9 gusting 14 26.7
2015-May-27 15:49 180 8 gusting 17 26.7
2015-May-27 15:44 180 6 gusting 14 26.7
2015-May-27 15:39 180 8 gusting 14 26.7
2015-May-27 15:34 180 7 gusting 14 26.7
2015-May-27 15:29 176 6 gusting 17 26.7
2015-May-27 15:24 180 6 gusting 15 26.7
2015-May-27 15:19 180 8 gusting 14 26.7
2015-May-27 15:14 180 7 gusting 14 27.2
2015-May-27 15:09 138 7 gusting 13 26.7
2015-May-27 15:04 180 7 gusting 17 26.7
2015-May-27 14:59 180 7 gusting 14 27.2
2015-May-27 14:54 26.7
2015-May-27 14:49 180 8 gusting 14 27.2
2015-May-27 14:44 179 8 gusting 14 27.2
2015-May-27 14:39 180 11 gusting 15 27.2
2015-May-27 14:34 180 6 gusting 13 26.7
2015-May-27 14:29 179 7 gusting 13 27.2
2015-May-27 14:24 180 8 gusting 14 27.2
2015-May-27 14:19 223 7 gusting 14 27.2
2015-May-27 14:14 180 11 gusting 14 27.2
2015-May-27 14:09 180 7 gusting 13 27.2
2015-May-27 14:04 180 6 gusting 8 27.2
2015-May-27 13:59 180 6 gusting 14 27.2
2015-May-27 13:54 159 5 gusting 11 27.2
2015-May-27 13:49 180 8 gusting 11 27.2
2015-May-27 13:44 096 6 gusting 12 26.7
2015-May-27 13:39 178 6 gusting 13 26.7
2015-May-27 13:34 180 6 gusting 8 26.7
2015-May-27 13:29 138 5 gusting 14 26.7
2015-May-27 13:24 137 8 gusting 13 26.7
2015-May-27 13:19 180 4 gusting 11 26.7
2015-May-27 13:14 179 4 gusting 8 26.7
2015-May-27 13:09 177 4 gusting 8 26.7
2015-May-27 13:04 133 5 gusting 8 26.7
2015-May-27 12:59 177 5 gusting 15 26.1
2015-May-27 12:54 088 7 gusting 15 26.1
2015-May-27 12:49 094 7 gusting 13 26.1
2015-May-27 12:44 083 5 gusting 13 26.1
2015-May-27 12:39 090 7 gusting 13 26.7
2015-May-27 12:34 133 7 gusting 14 26.7
2015-May-27 12:29 047 4 gusting 11 26.7
2015-May-27 12:24 092 4 gusting 11 26.7
2015-May-27 12:19 135 2 gusting 10 26.7
2015-May-27 12:14 092 4 gusting 6 26.7
2015-May-27 12:09 178 3 gusting 8 26.1
2015-May-27 12:04 090 6 gusting 8 25.6
2015-May-27 11:59 093 5 gusting 8 25.6
2015-May-27 11:54 132 5 gusting 12 25.6
2015-May-27 11:49 093 5 gusting 12 25.6
2015-May-27 11:44 090 6 gusting 13 25.6
2015-May-27 11:39 048 4 gusting 13 25.6
2015-May-27 11:34 090 8 gusting 15 25.6
2015-May-27 11:29 131 6 gusting 11 25.6
2015-May-27 11:24 049 6 gusting 13 25.6
2015-May-27 11:19 132 5 gusting 14 25.6
2015-May-27 11:14 088 7 gusting 13 26.1
2015-May-27 11:09 134 2 gusting 10 26.1
2015-May-27 11:04 090 5 gusting 6 25.6
2015-May-27 10:59 090 5 gusting 11 25.6
2015-May-27 10:54 133 4 gusting 10 26.1
2015-May-27 10:49 130 4 gusting 8 25.6
2015-May-27 10:44 090 7 gusting 11 26.1
2015-May-27 10:39 087 3 gusting 8 25.6
2015-May-27 10:34 092 3 gusting 6 25.6
2015-May-27 10:29 093 3 gusting 6 25.6
2015-May-27 10:24 090 2 gusting 6 25.0
2015-May-27 10:19 135 4 gusting 8 25.0
2015-May-27 10:14 090 5 gusting 10 25.0
2015-May-27 10:09 132 2 gusting 6 25.0
2015-May-27 10:04 090 2 gusting 6 24.4
2015-May-27 09:59 094 5 gusting 8 24.4
2015-May-27 09:54 048 3 gusting 11 24.4
2015-May-27 09:49 087 6 gusting 11 24.4
2015-May-27 09:44 093 2 gusting 6 24.4
2015-May-27 09:39 090 4 gusting 7 23.9
2015-May-27 09:34 042 2 gusting 8 23.9
2015-May-27 09:29 047 4 gusting 8 23.9
2015-May-27 09:24 092 2 gusting 6 23.9
2015-May-27 09:19 174 4 gusting 10 23.9
2015-May-27 09:14 130 2 gusting 6 23.3
2015-May-27 09:09 058 2 gusting 6 23.3
2015-May-27 09:04 090 2 gusting 5 23.3
2015-May-27 08:59 090 3 gusting 6 23.3
2015-May-27 08:54 087 3 gusting 8 22.8
2015-May-27 08:49 048 2 gusting 8 22.8
2015-May-27 08:44 093 1 gusting 8 22.8
2015-May-27 08:39 093 5 gusting 8 22.8
2015-May-27 08:34 319 4 gusting 6 22.8
2015-May-27 08:29 129 1 gusting 4 22.8
2015-May-27 08:24 049 0 gusting 5 22.8
2015-May-27 08:19 130 3 gusting 6 22.8
2015-May-27 08:14 135 3 gusting 6 22.8
2015-May-27 08:09 131 2 gusting 5 22.2
2015-May-27 08:04 135 1 gusting 4 21.7
2015-May-27 07:59 088 2 gusting 5 21.7
2015-May-27 07:54 315 0 gusting 5 21.7
2015-May-27 07:49 318 1 gusting 5 21.7
2015-May-27 07:44 049 1 gusting 6 21.7
2015-May-27 07:39 091 2 gusting 6 22.2
2015-May-27 07:34 135 2 gusting 4 22.2
2015-May-27 07:29 045 0 gusting 4 22.2
2015-May-27 07:24 090 0 gusting 4 22.2
2015-May-27 07:19 180 1 gusting 4 21.7
2015-May-27 07:14 171 0 gusting 4 21.7
2015-May-27 07:09 135 1 gusting 4 21.7
2015-May-27 07:04 135 2 gusting 4 21.7
2015-May-27 06:59 050 0 gusting 2 21.1
2015-May-27 06:54 135 0 gusting 2 21.1
2015-May-27 06:49 132 0 gusting 1 21.1
2015-May-27 06:44 177 0 gusting 2 20.6
2015-May-27 06:39 089 1 gusting 2 20.6
2015-May-27 06:34 003 0 gusting 2 20.0
2015-May-27 06:29 134 0 gusting 1 20.0
2015-May-27 06:24 092 0 gusting 1 19.4
2015-May-27 06:19 092 0 gusting 1 18.9
2015-May-27 06:14 054 0 gusting 1 18.3
2015-May-27 06:09 135 0 gusting 1 18.3
2015-May-27 06:04 248 17.8
2015-May-27 05:59 246 0 gusting 1 17.8
2015-May-27 05:54 180 0 gusting 2 17.8
2015-May-27 05:49 267 1 gusting 2 17.2
2015-May-27 05:44 270 0 gusting 2 17.2
2015-May-27 05:39 223 0 gusting 4 17.2
2015-May-27 05:34 180 0 gusting 2 17.2
2015-May-27 05:29 225 0 gusting 4 16.7
2015-May-27 05:24 248 2 gusting 2 16.7
2015-May-27 05:19 248 1 gusting 2 16.7
2015-May-27 05:14 225 0 gusting 2 16.1
2015-May-27 05:09 184 1 gusting 4 16.1
2015-May-27 05:04 180 2 gusting 2 16.7
2015-May-27 04:59 180 1 gusting 2 16.7
2015-May-27 04:54 180 0 gusting 2 17.2
2015-May-27 04:49 177 0 gusting 2 17.2
2015-May-27 04:44 090 0 gusting 5 17.2
2015-May-27 04:39 134 1 gusting 5 17.2
2015-May-27 04:34 092 2 gusting 5 17.2
2015-May-27 04:29 092 1 gusting 5 17.2
2015-May-27 04:24 132 0 gusting 2 17.2
2015-May-27 04:19 090 1 gusting 2 17.2
2015-May-27 04:14 090 0 gusting 2 17.2
2015-May-27 04:09 141 0 gusting 2 17.2
2015-May-27 04:04 135 0 gusting 1 17.2
2015-May-27 03:59 129 0 gusting 2 17.2
2015-May-27 03:54 132 0 gusting 2 17.2
2015-May-27 03:49 096 1 gusting 5 17.8
2015-May-27 03:44 090 2 gusting 4 17.2
2015-May-27 03:39 090 2 gusting 6 17.2
2015-May-27 03:34 129 2 gusting 5 17.2
2015-May-27 03:29 090 2 gusting 5 17.2
2015-May-27 03:24 111 4 gusting 5 17.2
2015-May-27 03:19 133 1 gusting 4 17.2
2015-May-27 03:14 179 0 gusting 2 17.2
2015-May-27 03:09 180 1 gusting 2 17.2
2015-May-27 03:04 180 0 gusting 1 17.8
2015-May-27 02:59 177 0 gusting 1 17.8
2015-May-27 02:54 135 0 gusting 1 17.8
2015-May-27 02:49 132 0 gusting 2 17.8
2015-May-27 02:44 135 0 gusting 2 17.8
2015-May-27 02:39 090 0 gusting 4 17.2
2015-May-27 02:34 135 1 gusting 4 17.8
2015-May-27 02:29 134 2 gusting 4 17.8
2015-May-27 02:24 133 1 gusting 2 17.8
2015-May-27 02:19 096 0 gusting 4 17.8
2015-May-27 02:14 131 2 gusting 4 17.8
2015-May-27 02:09 132 1 gusting 5 17.8
2015-May-27 02:04 090 2 gusting 4 17.8
2015-May-27 01:59 090 2 gusting 5 17.8
2015-May-27 01:54 090 2 gusting 5 17.8
2015-May-27 01:49 093 2 gusting 5 18.3
2015-May-27 01:44 090 2 gusting 4 18.3
2015-May-27 01:39 135 1 gusting 4 18.3
2015-May-27 01:34 090 1 gusting 4 18.3
2015-May-27 01:29 086 2 gusting 5 18.3
2015-May-27 01:24 048 2 gusting 4 18.3
2015-May-27 01:19 045 2 gusting 4 18.3
2015-May-27 01:14 045 1 gusting 5 18.3
2015-May-27 01:09 090 2 gusting 5 18.3
2015-May-27 01:04 090 1 gusting 4 18.9
2015-May-27 00:59 090 2 gusting 5 18.9
2015-May-27 00:54 090 2 gusting 5 18.9
2015-May-27 00:49 090 2 gusting 6 18.9
2015-May-27 00:44 090 2 gusting 6 18.9
2015-May-27 00:39 090 2 gusting 6 18.9
2015-May-27 00:34 090 4 gusting 6 18.9
2015-May-27 00:29 090 4 gusting 7 18.9
2015-May-27 00:24 090 4 gusting 6 18.9
2015-May-27 00:19 090 2 gusting 6 18.9
2015-May-27 00:14 051 4 gusting 6 18.9
2015-May-27 00:09 090 2 gusting 7 19.4
2015-May-27 00:04 090 6 gusting 7 19.4
2015-May-26 23:59 090 4 gusting 8 19.4
2015-May-26 23:54 086 5 gusting 8 19.4
2015-May-26 23:49 131 4 gusting 8 19.4
2015-May-26 23:44 090 4 gusting 6 19.4
2015-May-26 23:39 090 4 gusting 8 19.4
2015-May-26 23:34 133 5 gusting 8 19.4
2015-May-26 23:29 090 4 gusting 6 19.4
2015-May-26 23:24 090 2 gusting 6 20.0
2015-May-26 23:19 090 5 gusting 10 20.0
2015-May-26 23:14 090 5 gusting 8 20.0
2015-May-26 23:09 090 6 gusting 8 20.0
2015-May-26 23:04 090 6 gusting 7 20.0
2015-May-26 22:59 131 5 gusting 7 20.0
2015-May-26 22:54 090 4 gusting 7 20.6
2015-May-26 22:49 090 6 gusting 8 20.6
2015-May-26 22:44 090 4 gusting 6 20.6
2015-May-26 22:39 045 2 gusting 6 21.1
2015-May-26 22:34 087 4 gusting 6 21.1
2015-May-26 22:29 090 4 gusting 6 21.1
2015-May-26 22:24 048 2 gusting 5 21.7
2015-May-26 22:19 086 2 gusting 4 21.7
2015-May-26 22:14 093 1 gusting 4 21.7
2015-May-26 22:09 135 2 gusting 4 21.7
2015-May-26 22:04 090 0 gusting 2 22.2